Location: Mount Kobau Star Party
(49.1167°N, 119.7333°W)
Time: 03:41:55
(UTC-07:00)

Envisat - Visible Passes

Search period start: 16 June 2025 00:00
Search period end: 26 June 2025 00:00
Orbit: 761 x 763 km, 98.3° (Epoch: 15 June)

Date Brightness Start Highest point End Pass type
(mag) Time Alt. Az. Time Alt. Az. Time Alt. Az.
16 Jun 3.5 03:40:52 10° NNE 03:45:52 57° E 03:50:50 10° S visible
17 Jun 4.7 03:03:37 10° NE 03:07:57 28° E 03:12:15 10° SSE visible
18 Jun 5.4 02:27:21 10° ENE 02:29:49 13° E 02:32:15 10° ESE visible
18 Jun 3.1 04:04:23 10° NNE 04:09:29 89° ESE 04:14:33 10° SSW visible
19 Jun 4.0 03:26:51 10° NNE 03:31:42 43° E 03:36:30 10° S visible
20 Jun 5.0 02:49:51 10° NE 02:53:41 21° E 02:57:31 10° SE visible
21 Jun 3.3 03:50:17 10° NNE 03:55:21 69° ESE 04:00:23 10° S visible
22 Jun 4.4 03:12:54 10° NNE 03:17:29 33° E 03:22:02 10° SSE visible
23 Jun 5.3 02:36:15 10° NE 02:39:24 16° E 02:42:33 10° SE visible
24 Jun 3.7 03:36:14 10° NNE 03:41:12 53° E 03:46:07 10° S visible
25 Jun 4.8 02:59:02 10° NE 03:03:15 26° E 03:07:25 10° SSE visible
